Flag for U.S.A. Weather past 2 weeks in Unalaska, Alaska, U.S.A.

Now
51 °F

Overcast.


Feels Like: 48 °F
Forecast: 48 / 54 °F
Wind: 9 mph from Southwest

Location: Dutch Harbor

Current Time: Jul 27, 2015 at 10:26:23 PM

Latest Report: Jul 27, 2015 at 9:56 PM


Visibility: 10 mi

Pressure: 30.02 "Hg

Humidity: 80%

Dew point: 45 °F

Location of UnalaskaLocation

Historic Weather in Unalaska — Graph

°F

Unalaska temperature yesterday

Maximum temperature yesterday: 54 °F (at 4:56 PM)
Minimum temperature yesterday: 48 °F (at 2:56 AM)
Average temperature yesterday: 51 °F

Past Weeks' High & Low Weather Summary

 TemperatureHumidityPressure
High65 °F (Jul 20, 3:56 PM)94% (Jul 15, 9:00 PM)30.38 "Hg (Jul 15, 9:00 PM)
Low48 °F (Jul 13, 7:56 AM)64% (Jul 22, 2:56 PM)29.34 "Hg (Jul 16, 6:56 AM)
Average52 °F79%29.94 "Hg
* Reported Jul 12 8:58 PM — Jul 27 8:56 PM, Unalaska, Weather by CustomWeather, © 2015

Note: Actual official high and low records may vary slightly from our data, if they occured in-between our weather recording intervals... More about our weather records

Advertising

Unalaska weather history for previous 24 hours

 ConditionsComfort  
Time TempWeatherWind HumidityBarometerVisibility
8:56 PM
Mon, Jul 27
52 °FOvercast.12 mph77%30.02 "Hg10 mi
7:56 PM54 °FPartly sunny.8 mph74%30.02 "Hg10 mi
6:56 PM54 °FBroken clouds.9 mph77%30.02 "Hg10 mi
5:56 PM56 °FScattered clouds.8 mph72%30.03 "Hg10 mi
4:56 PM55 °FScattered clouds.21 mph74%30.03 "Hg10 mi
3:56 PM55 °FBroken clouds.15 mph74%30.04 "Hg10 mi
2:56 PM53 °FMostly cloudy.16 mph77%30.05 "Hg10 mi
1:56 PM52 °FMostly cloudy.21 mph77%30.05 "Hg10 mi
12:56 PM51 °FPartly sunny.21 mph80%30.04 "Hg10 mi
11:56 AM51 °FMostly cloudy.20 mph77%30.05 "Hg10 mi
10:56 AM51 °FLight rain. Mostly cloudy.16 mph80%30.05 "Hg10 mi
9:56 AM50 °FMostly cloudy.15 mph80%30.06 "Hg10 mi
8:56 AM51 °FMostly cloudy.16 mph77%30.06 "Hg10 mi
7:56 AM51 °FOvercast.18 mph77%30.06 "Hg10 mi
6:56 AM51 °FOvercast.12 mph74%30.06 "Hg10 mi
5:56 AM52 °FOvercast.18 mph72%30.07 "Hg10 mi
4:56 AM51 °FOvercast.25 mph74%30.08 "Hg10 mi
3:56 AM52 °FOvercast.15 mph75%30.09 "Hg10 mi
2:56 AM52 °FClear.21 mph72%30.10 "Hg10 mi
1:56 AM52 °FPassing clouds.12 mph75%30.12 "Hg10 mi
12:56 AM51 °FLight rain. Overcast.18 mph80%30.13 "Hg10 mi
11:56 PM
Sun, Jul 26
51 °FBroken clouds.10 mph80%30.14 "Hg10 mi
10:56 PM52 °FScattered clouds.7 mph77%30.14 "Hg10 mi
Weather by CustomWeather, © 2015

See weather overviewHow to use our weather pages